STARLINK-5574, 55362

Orbit data source: Space-Track

STARLINK-5574, 55362 is a payload satellite owned by SpaceX/Seattle (US) in LEO that was launched on Thu, 26 Jan 2023 UTC via an FALCON 9 launch vehicle from the Air Force Eastern Test Range (AFETR). Payload-class satellites include a variety of spacecraft equipped with specific instruments for various scientific and technological missions. These include communications satellites like Starlink; space stations such as the ISS; scientific satellites like the Hubble; Earth observation satellites from companies like Planet Labs, Umbra, and HawkEye 360; GPS; miniature CubeSats for education and research; and military/defense satellites.

Loading next visibility...
Identifier
55362, 2023-013AH
Orbit
LEO
Country
Flag of USUS
Related business
Manufacturer
SpaceX/Seattle
Mission
Operational Commercial Communications
Bus & Motor
STARLINK, Unknown motor
Mass
305 kg wet, ~290 kg dry
Launch date (UTC)
2023-01-26 (3 years ago)
Launch vehicle
FALCON 9
Launch site
Air Force Eastern Test Range (AFETR)
Object type
Payload
Rocket body
Debris
Shape & HBR
Box + 1 Pan, 10.1 m
Radar Cross Section
13.562 m², Large (>1 m²)

Expand to show TLE details & history
Last TLE update: 21 hours ago

TLE from 21 hours ago
0 STARLINK-5574
1 55362U 23013AH  25348.82175113 -.00001072  00000-0 -64302-4 0  9991
2 55362  43.0042  28.4215 0001501 263.2962  96.7710 15.02518352159091
Epoch: 2025-12-14T19:43Z
TLE epoch observation values (Epoch: 2025-12-14T19:43:19.297Z)
Latitude
0.00001°
Longitude
8.86194°
Altitude
559.035 km
Speed
7.584 km/s
True Right ascension
01h 53m 41s
True Declination
0° 00' 00"
Sunlit
Object was in full shadow at epoch
Visualization orbit readout
Latitude
Unknown
Longitude
Unknown
Altitude
Unknown
Speed
Unknown
Apparent Right ascension
Unknown
Apparent Declination
Unknown
Sunlit
N/A
Visualization observer readout
Local Sidereal Time
15:11:33
Azimuth
Unknown
Elevation
Unknown
Doppler factor
Unknown
Orbital elements
Apogee altitude
562.099 km
Perigee altitude
560.016 km
Semi-major axis
6,939.194 km
Eccentricity
0.00015
Inclination
43.0042°
RAAN
28.4215°
Arg. of periapsis
263.2962°
True anomaly
96.78808°
Mean anomaly
96.771°
Eccentric anomaly
96.77954°
Mean motion
3.75474 °/min
Orbital period
95.88 mins
BSTAR
-0.000064302
Loading maneuver chart data...
Computing Atmospheric mass density...
Loading historical data...
Loading historical data...
Loading historical data...
Loading historical data...
Loading historical data...
Loading historical data...
Loading historical data...

Documentation

Showing up to 5 results
|